Lid_Strength_Index
-1 -1 -1 2 8 8 10 9 7 8 7 5 5 6 6 6 7 11 1 0 -0 -0 -1 -1 -1 -1 -2 -2 -2 -2 -2 -2 -1 -2 -2 -2 -2 -2 -2 -2 -2 -2 -2 -2 -2 -2 -2 -2 -2
0 0 1 4 9 11 10 7 8 7 5 5 5 5 6 7 4 4 3 0 -0 -1 -1 -1 -1 -1 -1 -2 -2 -2 -2 -1 -1 -2 -2 -2 -2 -2 -2 -2 -2 -2 -2 -2 -2 -2 -2 -2 -2
1 0 4 7 8 10 9 7 7 6 5 5 6 4 5 7 4 3 1 -0 -1 -0 -1 -1 -1 -1 -1 -1 -1 -2 -2 -2 -2 -2 -2 -2 -2 -2 -2 -2 -2 -2 -2 -2 -2 -2 -2 -2 -1
1 2 4 9 9 8 8 7 6 6 5 5 5 7 4 2 3 1 0 -0 -0 -0 -1 -1 -1 -1 -1 -1 -2 -2 -2 -2 -2 -2 -2 -2 -2 -2 -2 -2 -2 -2 -2 -2 -2 -2 -2 -1 -1
1 4 8 9 9 7 6 6 5 7 6 5 5 7 6 3 1 0 0 -0 0 -0 -1 -1 -1 -1 -1 -1 -1 -2 -2 -2 -2 -2 -2 -2 -2 -2 -2 -2 -2 -2 -2 -2 -1 -1 -1 -1 -0
5 4 10 11 9 7 6 5 5 6 5 5 6 6 6 2 2 1 0 0 -0 -0 -1 -1 0 -0 -1 -1 -1 -2 -2 -2 -2 -2 -2 -2 -2 -2 -2 -2 -2 -2 -2 -1 -1 -1 -0 -0 -0
6 7 9 9 9 8 6 4 6 6 6 6 4 7 5 3 2 1 0 -0 -0 -1 -1 -1 -1 -1 0 -1 -1 -1 -2 -2 -2 -2 -2 -2 -2 -2 -3 -2 -2 -1 -1 -1 -1 -0 -0 -0 -0
5 6 9 8 9 9 5 5 4 5 6 3 3 7 7 3 1 1 0 0 -0 -0 -0 -0 -1 -1 -1 -1 0 -0 -1 -1 -1 -1 -1 -1 -1 -1 -1 -1 -2 -1 -1 -1 -0 0 0 -0 -0
4 9 10 9 9 7 5 6 4 4 5 4 4 4 3 2 1 2 2 1 1 0 -0 -0 -0 -1 -1 -1 -0 0 0 -0 -1 -0 1 1 -1 -1 0 0 -1 -1 -1 -0 0 0 0 -0 -1
6 9 9 6 6 6 5 5 5 5 5 6 5 4 2 2 3 3 3 3 2 1 0 -0 -0 -1 -1 -1 -1 -1 -1 -1 -1 -1 -1 -0 -1 -1 -1 0 -0 -1 -1 -0 -0 -1 -1 -0 -0
6 9 7 6 5 5 5 6 5 6 6 5 6 5 4 4 3 3 3 2 2 1 1 0 -0 -1 -1 -0 -1 -1 -1 -1 -1 -1 -1 -1 -1 -1 -1 -1 -1 -1 1 -0 -0 -1 -1 -1 -1
9 6 6 6 5 5 6 5 5 6 5 4 4 3 4 4 4 4 3 2 2 1 1 1 -0 -0 -1 -1 -0 -0 0 -1 -1 -1 -1 -1 -1 -1 -1 -1 -1 -1 -1 -1 -0 -0 -1 -1 -1
8 7 6 5 5 5 5 6 6 5 4 4 3 4 4 4 4 3 2 2 1 1 1 0 0 -0 -0 -0 0 0 0 -0 -1 -1 -1 -1 -1 -1 -1 -1 -1 -1 -1 -1 -1 -0 -0 -1 -1
8 8 7 6 6 5 7 6 6 5 4 4 4 4 4 4 4 3 3 2 2 1 1 0 0 0 -0 -0 0 0 0 -1 -1 -1 -1 -1 -1 -1 -1 -1 -1 -1 -1 -1 -1 -1 -1 -0 -1
9 11 8 7 7 7 6 8 8 4 4 4 4 4 3 3 3 3 3 2 1 1 1 1 0 -0 -0 -0 0 -0 -0 -1 -1 -1 -1 -1 -1 -1 -1 -1 -1 -1 -1 -1 -1 -1 -1 -0 -0
12 10 12 8 7 7 7 12 7 4 5 5 4 4 4 3 3 3 2 2 1 1 1 0 0 0 0 -0 -0 -0 -1 -1 -1 -1 -1 -1 -1 -1 -1 -1 -0 -1 -1 -1 -0 -0 0 0 0
13 16 14 12 7 7 8 10 7 5 5 6 5 4 4 4 3 2 2 2 1 1 1 1 0 1 0 0 -0 -0 -1 -1 -1 -1 -1 -1 -1 -1 -1 -1 -1 -1 -1 -0 -0 0 0 1 1
16 16 15 14 10 9 10 10 7 5 5 6 5 5 4 4 3 2 2 1 1 1 1 1 1 0 0 0 -0 -0 -0 -0 -1 -1 -1 -1 -1 -1 -1 -1 -1 -1 -0 -0 -0 0 0 1 1
14 15 15 13 10 13 12 11 10 7 6 6 5 5 5 4 3 2 2 2 1 1 1 1 1 1 1 1 1 1 1 1 0 -0 -1 -1 -1 -1 -1 -1 -0 -1 0 0 0 0 1 1 0
14 15 15 13 12 13 14 14 11 9 8 6 6 6 5 4 3 3 2 2 2 2 1 1 1 1 1 1 1 1 1 0 0 -0 -0 -1 -1 -1 -1 -0 -0 -0 0 0 0 1 1 1 0
14 15 15 15 14 13 14 16 15 12 10 9 8 6 5 5 4 3 3 3 2 2 2 1 1 1 1 0 0 1 0 0 1 1 0 -0 -1 -1 -0 -0 -0 -0 -0 1 0 1 1 2 1
16 12 14 14 15 19 13 20 16 14 13 11 9 8 6 5 4 4 3 3 2 2 1 1 1 1 1 0 1 2 2 3 1 1 0 0 -0 -0 -0 -0 -0 -0 0 0 0 0 1 1 3
14 12 12 12 14 15 16 18 16 13 14 12 11 9 7 6 5 4 4 3 2 2 2 1 1 1 1 1 1 1 2 1 1 1 1 0 0 -0 -0 0 0 0 0 0 1 1 1 1 2
11 12 13 13 13 18 17 16 18 15 13 12 11 10 8 7 5 4 3 3 3 2 2 1 1 1 1 1 1 1 2 2 2 1 2 1 1 1 2 1 0 1 1 1 1 1 1 2 2
11 14 18 19 19 20 14 15 17 12 11 11 11 9 8 7 7 6 5 4 4 2 2 2 2 2 1 1 1 1 1 1 2 1 2 2 3 5 5 5 5 4 4 3 2 1 2 2 2
11 12 17 21 20 18 13 17 16 10 9 9 9 8 8 8 7 7 6 4 4 4 2 2 2 2 2 1 2 1 1 2 4 4 6 7 7 7 6 6 6 6 5 5 4 3 4 3 3
11 13 10 14 16 19 17 14 12 9 11 9 8 7 7 7 7 7 6 5 5 4 3 2 2 2 3 5 5 6 6 7 8 8 8 8 8 9 9 8 9 9 8 8 7 8 7 6 6
9 8 14 13 20 21 18 17 16 12 11 9 9 9 8 6 6 6 6 5 5 5 5 5 5 6 6 7 7 8 9 9 9 10 10 10 10 10 10 10 10 10 10 10 9 9 9 8 8
10 13 12 12 14 19 19 17 11 11 10 10 9 8 8 7 6 6 6 6 6 7 8 8 8 8 9 9 10 10 11 11 11 11 12 11 11 11 12 12 11 11 12 11 10 10 11 11 11
8 11 11 17 16 14 14 16 10 10 10 9 9 9 8 7 7 7 6 6 7 8 9 11 10 10 10 10 10 11 12 12 12 12 12 12 13 13 13 13 13 13 12 12 12 13 12 12 12